GFSGL_850_spd_000.txt.gz
Wind_Speed
8 7 3 1 5 4 4 2 3 6 10 9 7 6 3 4 4 5 6 6 6 6 6 7 8 10 17 18 13 17 23 19 22 23 26 25 32 29 28 23 16 14 12
8 6 5 1 3 3 3 3 3 8 9 8 5 6 7 6 7 9 9 9 7 5 6 9 8 9 15 17 13 22 20 17 21 25 26 27 29 32 26 22 14 14 13
8 8 4 1 1 3 3 6 6 7 9 9 7 8 11 10 12 11 10 10 10 10 10 11 11 12 16 15 15 16 17 17 17 25 26 30 34 28 24 17 13 13 12
10 9 6 4 3 4 9 9 9 10 12 11 11 12 11 11 9 11 10 9 9 11 11 12 14 10 10 13 14 15 17 20 26 26 25 35 30 23 20 18 13 11 10
11 10 7 8 5 7 13 13 14 14 12 12 13 13 11 10 10 9 11 9 9 11 12 15 15 10 11 14 20 20 19 19 25 23 26 25 24 25 19 14 13 13 11
13 11 9 9 7 10 14 14 13 12 12 11 10 10 10 10 9 8 5 2 5 8 13 17 15 17 17 14 14 14 15 26 25 23 21 20 20 19 15 13 16 15 12
14 13 13 13 11 11 14 14 12 10 11 11 9 8 9 10 11 11 6 6 8 12 17 20 22 17 20 19 20 24 23 17 21 21 14 13 13 14 14 15 16 16 15
16 15 16 16 12 11 12 12 12 10 11 10 8 9 10 13 13 12 11 13 11 14 19 23 21 24 20 21 23 21 19 19 16 10 11 12 14 16 15 16 17 15 11
19 17 17 17 13 14 10 10 9 8 10 9 7 8 10 15 15 11 12 12 15 18 20 18 19 20 20 20 16 14 14 14 15 15 15 15 17 19 16 14 12 10 10
22 20 17 19 16 14 11 10 8 6 8 8 8 8 9 15 16 14 13 15 17 18 21 22 23 20 21 17 15 15 15 14 13 16 16 14 13 14 12 11 9 8 7
22 20 19 21 18 15 13 11 10 6 7 8 10 11 13 14 16 15 15 14 18 20 23 22 21 22 20 23 14 15 15 13 14 16 16 13 11 11 11 11 10 7 4
23 22 20 22 20 19 14 15 11 7 7 10 10 12 12 14 13 14 15 12 12 16 19 18 21 19 16 16 16 13 10 7 5 7 8 9 9 9 9 8 6 5 4
24 24 23 21 22 21 18 16 14 12 8 11 13 13 13 13 12 12 12 12 12 12 14 15 16 16 16 18 17 13 9 7 6 7 7 7 8 8 9 8 7 7 6
26 26 24 23 24 23 21 18 17 15 12 10 13 16 16 15 14 14 15 15 14 13 13 16 16 17 17 17 17 15 13 12 9 10 10 10 11 12 11 10 10 8 6
29 28 27 25 23 24 23 22 21 17 14 11 11 14 19 19 18 16 16 16 15 15 15 16 19 20 20 19 19 17 16 15 14 14 12 12 11 13 15 14 12 8 5
31 31 30 28 28 26 25 25 23 20 17 14 11 8 16 13 15 17 16 14 14 15 18 19 20 21 22 22 21 20 20 19 18 15 14 14 14 15 17 16 12 9 8
33 33 33 31 30 31 29 27 28 24 22 20 17 13 14 15 16 15 17 20 19 19 20 20 21 22 23 24 24 24 24 22 20 18 17 17 16 18 19 18 16 14 15
34 32 33 34 33 31 32 30 27 27 27 24 21 20 18 20 20 18 21 21 26 29 27 24 23 23 24 26 27 27 26 25 24 22 21 20 20 22 22 21 20 19 18
37 36 34 35 34 32 29 30 29 26 26 26 24 23 22 23 24 25 26 27 27 30 30 29 27 25 25 25 27 28 29 29 27 26 25 25 24 25 26 24 22 21 18
38 37 37 35 36 34 34 31 31 30 26 24 23 22 22 25 29 31 32 31 31 29 29 31 30 29 28 27 27 28 29 30 30 29 28 27 27 29 29 27 28 25 19
39 39 39 39 37 37 36 36 34 34 33 29 25 20 20 23 24 30 31 31 30 29 28 27 28 31 32 32 31 31 31 31 31 30 29 28 30 31 29 29 24 21 14
37 37 38 41 42 40 39 36 34 32 33 34 30 27 24 24 24 27 30 31 30 29 28 27 27 27 28 30 33 33 32 33 34 33 31 29 30 31 29 29 25 19 16
39 36 37 38 39 42 42 41 38 33 31 30 30 32 29 28 25 26 29 30 31 31 30 29 29 28 29 29 30 31 34 33 37 37 33 34 32 37 33 29 22 20 23
34 40 36 37 37 38 37 39 39 38 35 31 31 33 30 28 24 23 23 24 25 26 27 28 29 29 29 30 31 35 35 37 38 40 37 36 40 39 35 33 26 24 23
31 38 37 35 36 33 32 30 31 32 33 31 28 27 30 33 28 26 25 24 24 27 27 28 30 31 32 32 32 34 36 37 36 36 37 40 38 39 38 36 29 29 25
32 38 42 30 28 30 25 22 23 24 28 27 27 30 31 31 32 31 24 23 25 26 27 27 28 30 29 29 29 28 31 33 33 32 34 35 37 41 37 29 31 30 24

GFSGL_850_spd_003.txt.gz
Wind_Speed
11 10 6 1 1 1 1 3 6 9 9 7 6 5 3 4 4 4 3 4 7 9 8 8 8 12 13 7 15 14 19 22 24 32 40 40 45 35 30 27 23 20 17
11 9 8 3 0 0 1 4 6 9 9 7 5 5 6 6 8 8 8 9 9 8 8 8 9 13 16 12 16 16 19 18 25 34 31 34 37 33 30 26 23 19 17
11 8 6 3 1 0 5 6 9 10 10 8 9 8 9 11 10 10 10 10 12 11 10 9 10 13 18 14 18 19 20 17 24 28 33 38 38 35 33 27 24 21 18
10 9 6 5 2 3 10 10 10 10 11 12 12 13 11 10 10 11 11 12 14 15 16 17 14 11 14 13 15 18 20 24 32 31 31 37 36 34 29 23 22 20 17
12 10 8 6 6 10 12 12 13 13 12 13 13 12 10 10 11 13 14 14 14 17 18 16 14 12 11 13 16 24 24 25 29 31 41 38 35 30 26 21 20 20 17
13 12 11 9 11 13 13 13 13 13 13 13 12 10 9 10 11 9 8 7 11 15 17 15 15 16 20 19 19 22 26 33 32 34 36 35 30 29 26 23 22 21 16
14 14 13 11 15 14 12 11 11 12 12 11 10 9 8 9 10 8 6 8 11 14 14 14 18 20 20 19 17 20 26 25 28 32 33 32 32 27 22 23 22 17 17
16 16 16 14 14 13 12 11 9 10 10 9 7 7 9 10 12 9 11 11 12 16 17 17 20 20 18 20 24 25 23 23 22 19 18 22 21 21 18 22 23 23 19
17 18 19 17 14 14 12 11 9 10 10 9 7 6 9 10 11 11 10 10 14 18 20 17 21 21 22 23 25 25 23 21 16 17 18 19 21 21 23 25 24 20 15
19 18 21 19 15 14 10 9 8 9 9 8 8 7 10 11 13 15 11 13 19 21 20 21 18 22 24 19 16 17 17 18 21 22 23 23 24 24 21 18 16 14 13
20 20 20 20 16 14 12 10 8 8 9 10 10 12 12 12 14 14 14 13 18 20 20 21 20 20 17 16 18 18 18 18 20 21 21 22 21 18 16 15 13 12 12
21 21 20 21 18 17 14 13 10 8 10 12 13 15 15 14 13 15 15 13 15 23 22 21 23 18 20 18 19 19 18 18 19 19 18 17 17 16 15 15 15 14 13
24 22 21 21 20 19 16 16 13 10 10 13 14 16 16 16 15 15 15 15 16 17 17 20 21 23 19 21 21 18 15 13 13 14 14 15 16 15 15 15 14 12 12
27 25 23 21 23 20 19 16 14 12 12 13 15 14 15 16 16 15 15 15 15 15 17 19 19 18 19 20 18 16 13 11 10 10 12 13 12 13 14 13 13 13 9
30 27 26 24 23 23 22 20 17 14 11 9 13 16 17 17 15 14 16 16 16 15 17 17 18 19 20 21 20 17 14 12 11 12 12 11 12 13 13 13 13 11 9
35 31 30 28 26 25 25 23 20 18 14 11 7 6 12 15 15 15 15 15 14 15 16 17 18 19 20 21 21 20 18 16 15 13 13 12 12 13 16 18 17 14 12
36 36 33 31 29 28 27 26 24 21 20 18 15 13 8 10 15 18 17 16 15 16 17 18 19 21 22 22 22 22 21 19 17 16 16 15 15 15 18 21 20 19 17
34 33 36 35 34 32 30 28 24 24 24 23 21 20 18 16 18 17 18 20 22 22 21 20 21 22 22 23 24 24 23 23 21 22 21 20 19 18 19 23 22 21 19
39 36 34 35 35 34 31 30 27 23 22 22 24 22 22 21 22 24 23 25 26 27 27 27 24 22 23 23 24 25 26 26 26 25 24 22 21 21 23 24 22 22 20
40 36 35 33 35 34 34 32 29 27 26 24 24 25 26 26 27 29 32 31 32 31 30 29 29 28 27 25 25 24 26 28 28 28 28 26 25 24 24 25 25 25 20
41 41 38 35 33 34 35 36 34 30 28 28 26 25 25 26 27 29 31 34 34 34 32 31 30 31 30 30 29 28 27 28 29 30 31 30 28 28 30 28 30 27 28
44 42 42 42 38 35 36 36 35 33 31 29 28 28 26 26 27 27 27 29 31 31 31 29 28 27 27 30 31 32 33 32 32 32 32 31 30 29 31 33 33 28 28
44 44 43 44 43 40 37 36 36 37 36 34 31 31 32 31 31 29 26 24 25 27 27 27 26 25 26 27 28 29 31 34 36 36 36 33 34 30 38 40 38 32 30
38 40 42 42 44 42 43 42 39 36 36 35 33 32 31 29 29 30 26 25 23 25 27 28 29 29 29 28 28 28 29 31 33 35 37 39 39 37 39 42 40 31 28
30 33 36 38 40 42 39 38 39 40 38 39 38 36 32 31 31 29 28 28 22 23 25 27 28 28 29 30 30 31 32 32 33 33 34 39 43 39 39 44 38 32 30
13 13 25 30 33 36 37 37 36 37 34 35 37 36 34 33 30 27 29 32 30 27 27 28 28 27 28 30 31 32 32 31 31 29 29 32 37 40 45 42 38 34 25

GFSGL_850_spd_006.txt.gz
Wind_Speed
13 11 9 6 6 5 5 7 8 9 9 6 5 3 2 2 3 2 4 4 5 7 9 9 6 8 9 7 7 12 16 16 26 43 50 46 44 42 37 36 32 28 24
12 10 7 5 5 4 6 7 8 8 8 6 5 4 3 2 1 2 4 8 9 7 7 8 9 10 9 12 13 18 16 19 36 40 52 45 44 37 34 30 26 24 22
12 9 7 4 4 5 7 7 9 8 8 7 6 6 5 4 3 5 6 9 10 9 10 8 13 13 11 14 15 21 26 27 35 48 47 42 40 33 30 27 27 23 20
11 9 7 5 5 7 9 9 9 8 8 8 8 7 7 6 5 7 9 11 12 10 11 10 13 14 11 17 22 25 30 32 34 47 46 41 38 34 32 29 25 22 23
12 10 8 6 7 10 11 10 9 10 10 9 11 10 8 7 7 7 12 10 15 17 14 14 13 13 11 17 23 25 30 35 37 46 43 44 38 36 28 23 20 20 18
14 12 10 9 11 12 13 12 11 9 10 10 10 8 9 7 11 9 8 10 10 12 14 14 15 18 15 16 23 24 27 37 39 46 46 43 41 34 27 21 25 21 17
15 14 12 12 12 12 13 12 11 11 11 10 9 9 9 10 8 5 8 9 9 10 13 17 22 23 22 21 22 23 23 30 33 44 40 39 36 29 25 21 19 17 15
16 15 14 14 13 12 12 12 11 10 9 8 9 10 9 10 8 6 7 10 13 10 14 15 20 19 19 23 26 24 22 22 28 34 31 35 27 24 23 20 20 16 17
18 17 16 15 13 13 11 11 11 11 9 7 7 10 10 12 9 9 9 12 13 15 14 14 15 19 24 26 24 28 28 26 26 26 25 27 23 21 21 21 19 18 18
19 19 18 15 15 13 11 10 11 11 9 7 7 9 10 12 11 9 11 15 15 17 17 19 22 28 25 22 22 23 24 21 20 22 24 22 21 19 20 17 18 14 14
19 19 19 17 15 12 11 9 10 11 10 9 9 10 11 12 13 10 12 15 18 17 18 20 26 23 20 18 19 15 18 20 21 19 22 23 24 22 21 16 17 11 12
21 20 20 18 15 14 12 11 9 10 10 11 11 12 11 15 15 15 15 14 17 17 18 20 22 21 19 21 21 21 21 22 18 17 18 19 19 17 15 17 19 14 17
22 21 20 19 16 16 15 14 11 11 10 12 12 12 12 12 15 15 14 15 21 15 17 22 22 21 20 20 20 20 19 16 17 16 15 15 15 14 18 18 18 17 14
25 23 21 21 19 17 15 14 12 12 12 12 13 13 13 13 14 17 18 20 18 16 20 20 23 20 19 18 20 19 13 14 15 14 14 14 16 16 16 16 17 16 14
26 24 23 22 22 20 18 16 14 13 12 13 13 13 15 15 15 16 17 17 16 15 20 21 21 17 15 16 14 14 12 15 13 13 14 15 15 15 15 16 15 14 14
28 27 26 24 23 21 20 18 19 16 15 14 16 14 13 13 16 16 16 17 18 19 18 17 17 18 18 18 18 16 14 15 13 13 14 14 15 15 14 15 14 13 11
32 29 26 25 23 23 22 20 20 21 18 16 14 14 17 17 16 17 18 17 16 17 16 16 17 18 19 20 20 20 19 17 16 15 15 15 15 14 17 15 15 14 12
33 31 28 28 25 24 23 21 20 20 22 22 22 19 17 14 16 19 19 20 21 21 17 17 18 19 20 20 21 21 20 18 18 17 17 17 17 17 17 16 16 16 18
32 30 29 25 25 24 23 22 21 20 19 19 19 25 23 21 20 20 20 22 20 21 21 19 19 19 20 21 21 21 22 22 21 20 20 20 19 19 18 18 19 22 26
32 31 30 27 26 26 26 24 23 23 21 21 21 19 24 25 26 26 28 28 23 22 22 22 22 21 21 21 22 23 24 25 25 23 23 23 22 22 20 21 22 29 27
34 33 34 29 27 27 28 27 26 25 24 24 23 22 24 26 25 24 25 29 28 25 24 24 24 24 25 24 23 23 24 25 26 26 25 25 25 26 27 30 32 28 27
34 33 35 35 29 28 29 29 28 27 27 26 24 23 27 26 23 24 24 24 25 27 26 25 25 26 26 26 26 26 27 27 27 26 26 26 26 26 26 31 34 28 29
35 34 32 36 34 31 30 28 29 29 28 27 26 26 29 28 26 25 24 24 24 25 26 27 27 26 26 26 27 27 28 28 27 27 26 26 27 27 28 36 36 35 39
35 35 35 33 37 33 31 32 31 31 30 29 29 29 28 29 30 28 27 25 24 24 24 26 27 27 26 26 26 26 26 25 25 26 29 30 30 32 32 33 35 33 39
34 34 35 33 33 37 32 31 30 31 30 31 31 30 30 29 28 30 28 28 27 26 26 26 27 29 30 30 28 28 28 30 30 29 28 30 30 34 37 39 41 43 40
29 30 29 29 27 27 27 24 25 26 29 29 29 29 29 29 29 27 26 26 27 28 28 26 28 28 28 29 31 31 33 33 32 33 34 31 30 30 32 36 40 39 43

GFSGL_850_spd_009.txt.gz
Wind_Speed
13 10 9 7 7 5 6 7 7 7 6 4 3 2 2 1 2 3 4 4 5 8 8 7 5 4 6 8 9 10 14 21 32 32 35 40 38 44 39 35 35 32 30
12 10 8 7 6 5 7 8 8 7 6 4 3 3 2 3 3 4 3 9 7 8 7 7 7 6 6 9 14 16 18 23 35 45 39 37 43 36 35 34 33 30 28
12 9 8 6 5 5 7 7 8 7 6 5 4 3 2 1 2 2 1 7 9 6 7 8 10 9 13 14 18 14 19 31 43 49 38 40 36 33 28 31 27 25 24
12 9 7 5 5 5 7 7 8 7 7 6 5 4 3 3 6 5 6 10 5 5 7 11 12 11 16 18 18 23 25 44 46 46 41 39 38 33 31 32 28 24 24
12 10 8 7 7 8 8 8 8 8 7 8 7 7 5 5 4 8 6 8 10 8 9 10 14 13 16 23 27 29 28 45 45 44 40 41 36 32 32 29 29 25 19
13 11 10 10 10 10 8 9 9 9 9 11 9 7 7 4 7 9 11 8 10 10 10 10 13 15 17 20 22 28 35 51 47 44 43 40 35 33 27 29 28 25 23
15 13 12 12 11 10 10 9 9 9 10 9 8 8 6 9 5 5 10 9 10 11 10 13 14 15 20 21 24 26 29 42 44 46 44 40 39 32 29 28 25 19 19
15 14 14 12 11 11 10 9 9 11 12 12 9 9 9 7 3 4 10 6 8 12 16 16 18 17 25 24 25 29 29 37 40 44 39 39 35 28 24 23 23 19 17
16 15 15 13 11 10 10 8 7 7 7 8 11 10 9 8 4 7 11 7 14 14 15 14 16 20 22 23 25 28 29 33 38 27 26 32 27 21 20 21 17 16 17
17 16 16 13 12 11 9 9 7 6 4 4 9 12 10 10 8 7 15 8 14 15 15 17 18 25 23 23 24 26 24 31 33 28 28 22 20 21 22 18 17 17 17
18 17 16 15 14 11 9 9 9 7 6 5 8 10 11 9 9 8 14 14 15 18 17 23 24 24 24 23 24 25 31 30 30 25 25 22 19 20 21 18 18 12 18
19 19 18 16 15 11 10 8 9 8 7 7 10 11 10 12 10 13 14 18 17 19 22 22 26 25 24 22 21 20 21 23 20 20 19 18 17 17 17 13 14 13 18
21 20 19 17 15 13 11 10 9 9 8 9 9 12 11 10 13 13 14 19 19 18 21 24 23 20 18 17 20 21 23 19 19 20 19 19 18 17 17 19 25 17 13
23 22 20 19 17 15 13 11 10 10 10 10 12 11 11 10 10 13 17 19 19 19 21 21 20 21 18 20 21 21 16 17 19 20 19 17 18 21 21 17 18 20 18
24 23 22 21 20 17 15 12 11 10 11 10 10 11 11 11 12 14 18 17 13 20 23 21 21 18 14 19 19 15 15 17 18 18 17 18 17 15 15 15 14 14 12
25 24 23 22 22 19 18 16 16 14 17 14 14 12 12 11 13 14 19 17 16 16 15 16 16 15 15 17 17 16 15 17 15 15 16 15 15 16 16 16 15 15 14
28 25 23 23 22 22 21 19 19 17 15 21 19 16 14 16 13 13 17 18 18 16 15 14 15 17 16 17 17 18 18 17 17 16 16 16 17 17 19 16 16 16 17
32 27 25 24 22 23 22 21 19 19 19 19 19 24 17 15 16 16 18 18 19 20 16 16 17 18 19 19 19 20 20 20 19 18 18 18 19 18 18 18 18 19 19
30 28 27 23 24 22 23 22 21 21 20 19 19 24 23 22 19 20 20 20 18 19 20 18 18 19 19 20 21 21 22 23 23 22 20 19 19 20 21 22 22 23 24
31 29 30 26 24 25 24 24 23 23 22 22 24 25 31 27 26 27 29 27 22 21 21 22 21 21 21 22 23 23 24 26 26 25 24 25 26 27 26 24 23 26 30
30 29 33 28 26 28 26 26 25 24 24 23 23 25 27 34 29 28 30 30 28 25 24 24 24 24 24 24 25 25 26 27 29 29 30 30 30 29 29 26 25 26 30
32 31 33 33 29 28 29 28 27 27 26 25 24 24 29 25 26 27 27 29 29 30 28 28 27 26 27 27 28 28 28 29 31 31 32 32 30 30 29 28 26 31 34
36 34 33 37 34 30 31 28 28 28 27 27 26 26 30 30 27 28 29 29 29 29 29 31 31 29 28 29 30 31 32 31 30 31 31 31 31 31 32 32 30 37 40
36 36 37 36 37 34 33 34 31 29 28 28 28 28 29 31 30 30 29 29 29 29 28 29 31 30 29 30 30 32 33 33 33 32 31 33 32 31 32 31 30 38 35
35 37 37 37 38 39 35 33 33 30 31 30 29 29 29 28 27 29 31 31 30 30 30 29 29 28 30 31 31 31 31 31 33 33 31 33 34 31 30 31 30 32 33
34 35 35 36 37 36 39 36 35 36 33 34 34 31 31 31 31 30 31 33 35 34 34 32 32 29 28 30 34 34 33 33 33 34 33 28 26 31 29 31 31 28 38

GFSGL_850_spd_015.txt.gz
Wind_Speed
17 13 14 9 6 5 10 7 9 10 8 6 5 5 2 4 5 5 4 6 6 6 4 6 7 7 7 5 10 15 14 17 18 18 11 17 26 39 46 46 42 46 42
16 15 12 10 6 6 8 8 7 10 11 7 3 2 2 6 8 8 6 7 5 3 3 5 7 6 6 9 13 16 13 16 24 26 23 28 32 40 44 43 39 40 39
15 11 7 6 5 3 11 9 6 10 11 5 4 1 4 6 6 3 3 3 2 2 5 4 5 4 8 9 12 12 15 25 26 34 38 41 47 50 49 45 43 37 34
14 10 7 5 3 1 11 10 8 11 9 5 3 1 3 4 3 6 8 6 4 4 4 8 8 6 11 10 13 19 26 29 34 36 49 42 50 45 39 39 37 31 31
16 7 7 8 4 10 9 10 9 10 7 6 4 3 2 4 4 6 5 4 5 6 8 10 5 12 12 10 12 28 35 41 43 44 43 45 45 46 39 36 38 28 25
16 10 11 9 10 11 10 10 10 9 9 6 6 2 2 4 6 6 7 8 7 8 9 11 15 15 16 8 11 34 44 48 51 45 39 40 40 38 36 37 33 32 27
12 12 11 12 12 9 10 12 11 9 9 8 7 4 1 4 6 7 7 8 8 9 12 16 18 20 13 13 30 38 31 40 40 38 40 41 38 36 39 36 34 31 30
13 14 13 13 10 11 10 10 11 12 12 10 8 5 0 1 5 7 6 8 10 10 12 15 20 19 16 25 31 31 32 35 35 32 33 36 36 37 30 28 28 24 22
17 14 16 14 10 10 9 9 9 13 13 12 11 7 4 5 5 6 7 10 13 14 13 16 19 19 19 27 31 34 32 32 34 27 33 33 30 27 26 28 25 26 26
18 14 15 9 9 10 10 6 8 9 11 11 9 6 6 7 8 8 9 10 12 12 14 17 19 20 22 24 30 30 33 32 31 31 31 27 25 23 21 17 20 21 24
16 15 19 13 14 11 7 10 11 9 7 11 13 9 9 7 9 10 11 9 11 12 20 21 21 18 18 19 31 26 34 35 32 32 28 25 23 23 20 16 12 8 18
17 17 18 17 13 9 8 10 8 7 7 11 14 11 12 9 11 12 13 10 11 14 20 20 19 17 17 20 23 28 29 31 32 31 29 25 25 24 21 15 15 10 7
20 22 20 16 11 9 12 13 8 7 10 13 13 11 12 9 13 16 16 13 15 20 19 20 20 19 19 19 22 26 30 29 32 32 31 27 23 23 23 20 17 12 11
23 22 20 15 13 9 8 12 11 12 13 14 14 12 12 14 17 19 19 17 17 21 23 23 22 21 18 20 22 32 36 27 29 30 30 26 22 25 27 23 22 25 20
26 24 22 17 16 12 9 14 10 8 8 13 10 12 12 13 18 20 19 18 18 24 25 23 23 20 20 22 28 30 28 24 23 24 23 21 22 26 27 27 23 21 20
26 26 24 20 18 16 12 15 14 11 8 9 7 9 10 9 17 21 17 17 21 24 22 20 20 20 24 26 28 28 26 23 21 22 22 22 23 25 28 28 25 23 23
29 27 26 23 22 21 17 18 14 16 10 8 14 11 9 7 14 21 21 20 22 23 21 21 21 22 24 29 29 28 24 19 19 24 23 23 24 25 26 27 25 25 25
27 28 26 24 22 25 19 20 19 17 16 14 12 16 13 10 9 15 22 21 22 23 22 22 22 22 24 27 27 24 20 19 22 27 26 27 29 27 27 28 28 27 26
28 29 28 23 26 24 24 23 22 21 22 20 20 17 16 16 14 14 18 22 26 28 25 23 25 25 24 23 26 24 21 23 27 24 25 27 30 29 29 30 29 28 26
32 30 29 25 25 25 25 27 27 25 24 23 25 25 24 23 24 25 24 25 27 28 29 27 26 25 26 29 28 27 26 27 26 31 30 27 29 31 30 28 29 30 32
34 32 31 30 28 29 29 28 29 30 28 29 25 22 27 33 32 30 29 29 31 31 31 32 31 30 29 31 29 30 32 32 34 33 33 32 35 36 34 33 32 35 35
38 36 34 31 28 32 31 30 30 30 31 29 30 28 25 25 28 33 34 34 33 32 32 32 35 37 36 35 34 35 33 35 35 35 37 36 36 37 38 36 34 35 37
21 34 38 36 33 30 33 32 33 33 33 33 31 32 31 32 31 29 29 29 32 34 34 35 34 32 35 40 39 34 35 38 36 35 36 37 37 36 36 37 38 37 36
11 13 27 38 38 35 32 36 35 38 36 35 34 35 34 33 33 32 31 30 28 26 28 33 39 40 37 35 34 37 42 38 32 33 34 36 38 39 38 39 38 39 40
14 15 16 5 35 43 39 33 39 36 39 39 38 39 39 37 35 35 34 33 33 31 28 27 29 31 32 38 41 39 37 35 35 35 37 36 37 37 37 37 37 40 40
11 14 19 21 6 29 45 43 39 42 40 42 42 41 41 42 43 41 39 38 38 37 35 33 30 31 29 28 28 29 37 40 39 39 36 36 38 38 36 36 35 38 39

GFSGL_850_spd_021.txt.gz
Wind_Speed
21 19 18 16 14 12 10 10 9 7 7 10 9 5 3 4 6 9 10 9 8 7 8 8 9 12 12 10 11 11 13 15 12 13 10 13 11 12 11 20 17 21 31
17 15 14 11 10 9 11 11 9 9 8 10 8 3 5 6 8 13 13 11 8 9 8 10 10 11 13 11 12 13 14 16 16 20 18 19 14 12 18 21 39 46 45
20 16 14 11 10 8 9 9 10 9 12 10 5 4 5 8 9 10 6 5 9 8 9 10 12 12 12 11 11 13 15 15 13 22 24 21 24 25 31 37 38 30 35
18 13 14 10 6 5 11 9 6 13 11 4 3 3 5 7 7 2 1 3 6 9 11 11 11 11 11 10 12 13 14 14 22 22 27 26 24 34 41 43 42 38 36
18 14 12 10 6 5 13 10 12 15 8 5 3 3 5 6 3 3 1 3 5 7 8 11 9 8 6 8 9 12 15 20 24 24 32 34 36 39 44 46 45 38 34
20 15 12 9 9 10 10 11 15 12 8 6 3 2 5 5 4 3 2 2 2 5 7 10 8 10 11 9 7 9 15 24 30 31 36 42 41 43 46 45 44 42 38
19 15 7 12 11 11 13 13 13 9 8 6 3 2 5 5 5 4 2 3 3 7 6 10 15 14 7 8 9 14 20 21 29 31 37 40 43 46 45 45 43 40 35
18 13 10 12 11 11 11 12 12 9 8 7 4 1 4 5 5 4 3 3 5 9 10 10 9 7 7 15 22 24 24 32 35 35 36 42 44 43 36 36 37 33 27
16 11 11 13 10 15 14 11 11 10 9 8 5 3 4 6 4 3 4 5 7 11 10 11 6 13 13 20 26 29 31 28 34 33 37 38 38 32 31 32 31 32 32
16 12 11 12 12 11 9 10 10 10 10 9 6 4 4 2 2 3 5 5 8 12 13 9 14 19 18 21 27 30 31 34 35 32 32 30 29 24 24 28 29 28 29
16 14 12 12 11 11 9 8 9 10 11 10 7 5 2 2 1 3 5 3 5 15 15 15 18 22 21 24 26 26 28 28 24 28 27 27 22 24 20 21 18 18 22
17 15 13 13 11 10 7 7 8 9 11 11 10 8 5 4 4 5 5 4 7 18 18 18 22 23 19 27 23 22 21 25 25 26 25 22 22 21 19 16 12 13 13
18 16 13 12 10 8 4 8 8 8 7 10 10 8 8 6 6 7 7 7 10 16 18 19 21 22 23 23 23 22 22 25 26 27 27 24 22 21 18 16 15 14 15
20 16 15 14 11 6 5 8 5 4 6 9 11 9 10 8 9 9 10 11 14 20 21 22 22 22 21 21 20 24 22 25 26 26 25 23 23 21 19 18 18 17 15
21 18 17 16 12 8 5 8 5 3 2 1 7 8 8 8 10 9 8 14 15 20 23 23 22 22 24 23 23 25 23 25 25 23 22 23 23 20 19 18 17 14 14
23 22 19 17 14 10 5 10 7 4 2 3 3 3 4 8 10 9 10 14 14 17 23 24 24 23 25 28 27 28 26 26 25 24 23 21 22 21 18 18 18 18 17
19 23 21 20 17 13 9 12 11 7 4 3 4 5 5 7 11 11 13 14 15 15 15 19 24 25 25 26 29 29 29 28 26 24 25 23 22 20 19 19 21 22 22
16 19 21 20 18 15 11 10 11 10 7 6 10 8 7 7 12 13 15 16 19 18 16 14 15 17 21 24 28 29 27 27 27 27 28 26 28 26 24 24 24 26 26
21 18 22 22 20 18 15 13 13 12 9 9 10 11 10 9 13 16 16 18 20 21 20 17 15 15 15 17 23 28 27 26 26 25 25 25 26 27 27 26 26 27 27
22 23 20 23 24 22 19 17 16 16 14 13 12 12 13 14 14 17 20 20 21 22 21 19 18 18 19 22 24 27 29 28 28 27 26 25 25 25 25 25 26 27 27
27 25 25 23 26 26 23 20 18 18 17 17 16 16 15 16 16 17 17 19 21 23 25 25 23 22 21 22 25 29 30 31 30 29 28 27 26 28 26 28 30 31 31
29 29 30 28 27 28 27 24 20 19 20 21 19 19 21 22 22 22 22 21 21 21 22 25 26 27 26 27 27 29 32 33 33 32 32 31 30 31 31 32 33 33 33
16 25 27 27 32 33 32 30 27 24 23 22 23 24 25 26 28 27 26 25 24 24 25 27 28 30 31 32 32 33 35 37 37 37 37 37 36 36 36 37 38 38 39
7 5 8 19 22 28 33 34 34 33 31 30 29 29 29 29 31 30 27 26 28 27 27 27 30 32 33 35 37 38 38 39 40 40 39 39 40 40 41 42 43 43 43
3 4 3 3 4 13 23 27 31 32 35 37 36 35 34 33 35 36 35 34 33 31 31 31 31 31 32 35 38 40 41 43 44 44 43 43 43 42 41 41 42 44 46
3 5 4 3 3 3 4 4 9 19 27 31 34 37 39 39 38 37 37 38 38 37 35 33 32 34 32 31 33 34 35 37 40 43 44 47 50 51 50 49 47 46 46

GFSGL_850_spd_024.txt.gz
Wind_Speed
20 20 20 19 17 16 16 14 11 8 8 9 11 9 7 4 4 5 7 9 8 8 8 8 7 10 10 9 8 10 11 11 9 7 10 11 12 12 16 14 19 19 16
20 20 19 18 16 14 12 11 10 10 12 13 10 6 2 4 6 9 10 11 10 10 9 9 7 9 10 10 9 9 11 12 10 12 16 16 11 11 14 16 22 20 25
18 16 15 13 12 11 11 11 12 12 11 11 8 3 2 6 7 9 10 6 7 9 10 9 8 8 10 11 10 11 12 12 13 16 22 16 18 16 23 23 23 38 39
17 15 14 14 10 9 11 11 13 12 13 8 5 1 4 6 6 3 2 3 5 7 7 9 9 9 9 10 10 10 12 14 14 22 20 22 25 27 22 37 42 42 42
17 15 14 12 10 6 12 10 11 15 10 8 5 1 4 5 3 4 1 1 3 4 6 9 9 9 8 11 9 10 14 16 21 25 25 27 30 37 39 44 39 37 35
16 14 12 10 8 10 11 9 15 12 9 7 5 4 6 6 5 4 1 1 2 4 7 9 10 9 6 9 8 10 15 18 26 28 31 35 40 41 43 39 39 44 39
14 12 9 9 11 11 10 11 15 9 8 7 4 4 6 7 6 6 3 2 4 8 9 9 11 11 10 10 10 13 14 12 16 22 30 35 41 40 42 46 45 40 38
12 11 8 12 13 13 13 13 12 8 7 5 3 2 5 6 6 5 3 3 7 9 9 9 11 7 6 9 15 20 19 15 15 21 26 28 35 43 44 42 40 37 31
12 10 11 12 13 12 11 10 11 9 8 7 3 1 4 5 5 6 6 7 11 10 10 9 7 8 12 18 22 23 20 19 21 25 26 32 40 42 34 36 35 33 31
13 8 9 12 10 12 12 9 11 10 9 7 4 1 3 4 4 5 6 7 10 12 10 8 13 14 15 19 23 27 24 22 22 27 28 33 38 31 27 27 29 28 31
13 11 9 10 10 10 9 8 9 10 9 7 5 3 1 3 4 5 5 5 9 13 14 17 16 13 16 21 23 25 29 27 27 32 35 34 28 27 26 21 21 22 24
14 13 10 8 9 8 7 7 8 8 9 8 7 5 2 3 5 6 5 6 12 13 17 21 19 17 19 21 25 30 29 28 29 29 30 26 23 22 24 22 15 16 16
16 14 11 7 8 7 6 6 7 6 6 6 7 5 5 5 7 7 7 9 15 15 19 22 21 18 22 22 23 22 21 23 27 26 26 24 24 22 23 20 17 18 15
17 14 12 7 7 7 5 6 3 2 4 6 7 7 7 5 7 8 8 13 16 17 20 22 21 19 22 20 21 19 24 24 24 24 24 24 23 22 20 17 18 18 18
17 16 14 12 8 6 5 5 4 4 6 4 6 5 5 4 8 8 7 13 18 19 22 23 23 21 22 21 19 19 22 21 24 24 24 24 23 22 20 18 17 17 17
16 18 15 13 11 8 6 9 7 6 7 7 7 5 5 7 10 10 11 12 18 21 21 22 23 22 22 22 23 21 23 23 22 23 23 22 21 21 21 20 18 17 15
14 17 17 16 14 10 7 11 9 6 6 6 6 7 7 7 10 10 13 13 13 18 21 21 21 22 22 22 23 24 24 24 23 23 21 20 20 19 19 19 19 19 18
14 12 17 16 15 12 8 9 10 6 3 4 5 5 7 10 10 12 14 15 15 15 15 18 21 21 23 24 25 26 25 25 26 24 23 22 21 21 20 20 19 19 20
16 13 14 15 16 14 10 9 9 9 5 3 8 7 6 8 11 11 11 13 15 15 14 13 12 17 20 22 25 26 26 27 28 27 25 26 26 26 26 25 24 23 23
18 15 13 11 14 17 15 13 11 11 9 8 7 9 8 8 9 13 13 14 14 14 14 13 13 13 13 15 19 24 27 28 28 29 29 29 29 29 28 28 27 26 25
17 17 16 18 15 14 18 17 14 13 12 12 10 10 10 9 7 8 9 12 14 16 18 18 16 15 15 16 17 19 24 29 29 29 29 28 28 29 27 26 25 25 26
18 16 16 17 18 20 20 20 18 14 13 13 12 13 13 14 15 16 15 13 11 13 15 18 21 21 20 20 20 21 24 26 29 31 31 31 30 29 28 29 29 30 30
8 11 14 16 17 19 20 21 23 22 19 16 14 16 18 18 17 17 18 17 18 17 17 18 21 23 24 25 26 26 27 28 30 31 33 33 33 34 33 34 34 35 35
5 4 2 7 14 16 17 19 20 22 24 24 24 22 22 22 22 22 22 21 21 21 23 23 23 23 25 27 29 30 31 31 30 32 33 37 39 39 39 40 40 40 40
5 4 3 3 3 2 8 12 16 18 20 23 25 27 29 29 29 29 28 28 28 27 27 26 27 27 28 29 29 31 33 34 35 36 36 38 40 42 44 44 44 44 44
3 2 2 2 3 3 3 4 3 1 7 13 19 23 25 26 26 27 27 29 30 31 32 32 31 29 29 31 31 32 32 33 34 36 38 41 43 45 47 48 48 49 49

GFSGL_850_spd_027.txt.gz
Wind_Speed
23 23 22 22 21 20 18 17 14 11 10 11 11 11 10 8 7 7 7 7 7 8 7 8 7 9 10 11 11 11 10 7 8 11 12 12 15 15 18 19 16 17 17
23 23 22 21 19 18 17 14 12 11 13 13 13 11 7 6 6 7 9 10 10 10 10 9 9 10 12 11 10 10 11 10 8 10 15 14 14 12 16 18 17 19 18
22 21 20 18 17 15 14 14 14 13 15 14 11 7 4 3 6 7 9 10 7 12 12 10 10 11 13 13 11 10 10 11 10 12 20 18 16 14 19 21 23 22 31
20 18 17 15 14 15 15 15 15 13 13 12 7 4 1 4 4 2 2 6 6 10 10 10 11 10 11 11 10 9 11 15 17 17 22 20 21 21 23 29 32 35 42
20 20 19 16 14 15 15 15 15 15 13 10 7 2 1 1 0 2 1 2 6 8 10 10 11 11 10 10 10 10 14 18 19 24 25 25 24 29 31 31 40 44 36
20 19 16 14 13 15 14 13 16 16 11 9 6 3 3 4 3 2 1 1 5 8 10 13 13 12 10 10 12 11 15 19 21 29 28 29 31 33 36 40 48 45 41
17 14 13 11 12 15 12 17 18 12 11 9 4 3 4 4 4 3 1 2 5 8 10 12 13 10 9 12 13 14 13 14 17 24 28 32 34 33 40 46 41 37 43
13 12 11 13 14 13 13 18 14 11 9 8 3 2 4 4 4 3 2 4 8 8 8 9 9 12 12 12 15 18 15 14 14 19 22 27 32 35 43 39 42 41 38
10 10 13 14 14 14 15 16 11 10 8 7 3 0 4 4 5 6 5 6 11 9 11 12 9 8 10 11 17 22 21 19 16 17 22 24 31 37 35 33 37 38 35
10 10 13 13 13 12 11 11 11 10 9 7 4 0 3 2 4 6 6 8 10 12 10 7 8 12 13 16 20 23 24 21 19 23 25 23 29 31 32 32 32 31 31
12 12 13 11 12 11 10 8 9 9 9 7 5 1 2 2 4 5 5 6 10 10 15 17 15 15 15 17 19 19 23 21 20 23 26 28 33 31 31 29 21 17 18
16 13 12 11 10 9 7 7 8 9 9 8 6 3 2 3 5 4 5 7 10 14 20 20 17 15 17 20 17 21 25 27 27 29 35 37 30 28 26 24 17 16 14
16 13 9 10 9 7 6 5 7 7 8 8 7 5 5 6 6 4 7 11 11 18 21 23 22 17 17 19 24 25 29 33 33 34 31 26 21 19 21 18 16 18 9
15 13 9 9 8 7 5 6 5 4 6 8 8 7 7 6 8 7 10 15 13 21 23 24 24 24 22 26 25 22 19 24 22 22 19 21 20 22 20 18 17 20 15
15 13 11 7 8 6 7 8 6 5 5 7 9 8 8 7 9 8 11 17 17 21 25 25 24 23 25 24 20 17 16 20 18 19 21 23 21 20 18 19 16 19 15
14 13 11 9 7 7 8 9 8 8 7 10 10 8 8 9 11 10 12 15 16 20 22 24 25 24 23 19 15 16 17 20 19 21 21 20 19 18 17 18 14 16 15
12 13 12 11 11 8 9 10 10 10 10 8 8 8 9 10 11 10 14 16 16 17 20 22 22 24 23 21 17 19 21 20 21 19 19 18 17 17 19 16 16 15 14
13 11 12 11 12 9 7 11 9 7 8 8 8 8 9 10 10 12 14 16 19 18 16 20 20 18 20 22 22 18 17 21 23 21 18 18 19 17 18 17 16 16 16
15 13 11 12 12 11 8 8 9 8 6 7 9 9 10 11 11 11 11 12 15 16 17 18 16 18 17 17 19 24 19 22 24 23 22 21 19 19 18 17 17 18 19
16 14 14 12 12 13 12 9 10 10 7 6 9 8 9 10 11 12 13 13 13 13 12 12 13 14 17 19 19 23 26 25 27 26 23 21 21 20 20 20 20 20 20
14 14 13 13 12 12 14 13 11 10 10 8 7 6 5 5 7 9 11 12 13 14 14 14 14 14 13 14 16 21 25 26 25 26 24 24 23 24 25 24 23 22 23
16 14 13 12 11 11 11 13 14 13 11 10 10 10 9 9 9 9 8 7 8 11 13 15 16 16 16 16 18 19 19 23 28 29 29 28 28 28 27 26 25 25 25
11 16 15 13 12 10 9 9 10 12 13 12 11 13 13 12 11 11 10 11 11 12 12 13 15 18 20 21 21 21 22 23 25 26 29 29 29 29 29 29 29 29 28
11 11 13 13 11 9 9 8 8 9 10 9 10 12 15 15 15 15 16 16 17 17 18 18 18 19 19 21 23 25 27 27 27 27 28 30 31 32 34 32 31 32 32
13 13 12 12 11 9 6 5 4 6 6 7 9 10 11 14 16 17 17 17 18 19 20 22 23 24 24 26 27 27 26 26 28 30 33 34 35 34 33 34 36 37 38
12 12 12 11 12 11 10 9 8 7 5 3 5 7 8 9 6 9 11 13 14 16 17 18 19 19 20 22 24 26 28 31 32 33 34 37 38 39 38 40 40 40 38

GFSGL_850_spd_030.txt.gz
Wind_Speed
19 21 22 22 22 21 21 20 19 18 17 14 12 11 11 10 10 11 10 10 11 9 8 9 10 9 10 11 11 9 8 11 12 10 12 13 13 13 15 15 14 16 16
21 21 22 22 21 21 19 18 16 13 13 12 12 11 10 9 9 9 10 9 11 11 11 10 10 11 12 13 14 11 9 9 12 14 15 16 16 14 15 17 16 16 18
21 21 21 20 19 18 16 15 13 13 12 13 12 10 7 7 8 9 11 12 12 12 13 12 11 11 13 12 11 10 11 9 12 11 20 17 17 14 18 19 18 20 19
20 19 18 17 16 15 14 14 13 13 14 12 9 7 7 6 5 5 7 7 9 8 11 12 11 12 13 12 11 10 10 11 12 15 21 20 19 16 19 24 25 22 31
18 16 16 15 14 15 15 14 13 13 12 10 8 5 4 3 2 2 4 6 8 8 9 10 10 11 12 11 10 10 14 18 16 20 24 22 22 25 26 30 31 35 34
18 17 16 14 14 14 14 14 14 14 12 11 7 4 2 2 1 2 3 5 7 8 9 10 14 11 13 12 12 11 18 15 18 23 25 27 27 28 28 33 34 45 34
17 15 13 13 13 14 13 14 15 12 12 11 7 5 3 1 1 1 2 3 7 10 11 11 11 12 12 13 14 14 16 18 15 23 27 27 28 29 30 34 39 39 36
15 13 11 12 13 13 14 16 13 11 12 9 6 4 2 3 1 2 4 4 5 8 10 10 10 11 12 14 16 15 15 13 12 19 22 24 28 30 30 35 44 36 36
13 11 11 12 13 14 16 15 11 12 9 8 5 3 3 3 3 4 7 6 6 7 9 11 12 13 12 14 15 18 20 20 17 16 17 21 26 29 34 42 38 39 38
12 12 12 13 14 15 16 13 10 11 9 7 4 1 2 3 4 5 7 8 8 10 11 10 10 9 10 13 15 19 22 22 20 19 20 22 27 35 38 36 34 38 36
12 13 14 13 13 13 12 12 10 10 10 8 5 3 3 3 4 4 6 6 8 10 9 10 13 12 13 15 17 18 21 21 19 19 23 26 30 38 31 24 27 26 22
14 15 14 14 12 10 9 10 11 11 10 9 7 5 3 3 4 3 5 8 7 10 15 16 16 13 13 14 16 20 20 20 21 22 24 29 30 26 28 23 20 18 15
16 15 13 11 10 8 7 9 10 11 10 9 8 7 5 5 6 5 9 9 11 17 19 18 16 16 16 13 17 20 20 21 22 23 25 26 23 24 23 24 19 16 15
16 13 12 10 9 6 5 6 7 8 8 8 7 8 7 7 7 8 12 11 16 21 23 18 19 19 19 23 28 22 18 21 25 25 22 21 22 20 18 16 14 15 8
15 13 9 9 8 6 7 7 4 5 8 7 8 7 6 8 10 9 14 16 21 24 25 20 21 22 26 25 19 20 19 22 20 20 20 20 18 17 16 16 15 15 12
16 13 10 8 7 6 7 8 6 6 9 10 13 10 8 7 10 10 13 14 19 25 21 18 19 20 18 15 12 16 17 18 19 18 18 19 19 18 17 16 15 16 15
15 13 11 9 7 7 8 8 8 9 10 9 8 8 7 11 11 11 15 15 17 21 15 16 17 17 16 13 13 13 15 14 17 17 18 18 17 16 17 15 15 15 16
14 14 11 10 8 7 8 8 7 8 7 9 8 9 11 10 9 13 16 17 18 15 16 16 15 16 15 13 14 15 15 15 17 17 17 17 16 16 16 16 17 17 17
14 13 11 9 8 8 7 8 8 9 10 8 10 11 12 12 12 12 14 16 16 14 13 13 13 13 13 13 14 15 15 16 17 17 17 16 16 16 16 17 17 18 19
13 13 12 10 9 9 8 8 9 8 9 9 8 9 13 14 13 14 14 13 10 10 11 13 13 14 14 14 14 15 16 16 17 18 17 17 17 17 18 18 19 20 21
13 10 12 10 9 9 9 8 7 8 8 8 9 7 8 11 10 12 13 10 10 10 10 11 11 12 13 15 17 17 19 19 19 19 19 19 19 20 20 20 21 22 23
11 11 11 11 10 9 9 8 8 7 7 8 8 8 9 12 7 8 10 10 10 11 11 12 12 13 14 15 16 18 19 20 21 21 22 23 23 24 23 24 25 26 26
8 10 10 11 10 10 9 8 8 8 8 7 8 6 10 10 8 7 7 8 9 9 10 11 12 13 13 14 15 16 17 18 19 21 23 23 24 24 25 26 27 27 28
11 9 8 8 8 8 8 7 7 8 7 7 8 6 5 7 7 7 7 7 8 9 10 11 11 12 13 14 15 17 18 18 18 19 22 23 24 26 28 28 29 29 30
16 17 16 17 17 16 15 14 12 10 10 8 6 5 5 4 4 4 5 6 7 8 9 10 11 12 14 16 17 18 19 22 24 22 21 22 25 26 28 29 30 31 33
15 14 17 17 15 13 12 12 13 13 12 14 15 16 17 16 16 16 14 12 7 2 3 5 6 8 10 16 22 22 26 30 31 31 30 28 28 30 30 31 32 34 35

GFSGL_850_spd_033.txt.gz
Wind_Speed
22 23 25 23 24 25 23 21 19 19 17 15 14 13 12 12 11 11 11 11 12 12 10 10 11 9 9 8 9 6 9 10 12 13 13 15 15 14 16 13 17 18 17
24 25 25 24 23 22 20 18 17 16 15 13 12 11 11 10 10 11 11 11 12 13 11 10 10 9 12 10 11 9 9 11 15 16 14 16 15 15 15 16 16 17 18
22 24 24 24 21 20 18 16 15 14 14 12 12 11 10 9 8 9 11 12 12 11 13 12 10 11 12 12 11 10 9 12 14 14 20 19 18 16 17 17 18 19 19
22 21 21 20 19 17 16 15 14 13 13 12 11 9 7 7 6 8 9 10 12 12 12 13 10 11 12 12 10 9 10 12 16 16 19 22 20 17 18 21 21 20 23
20 19 18 16 15 14 14 14 14 14 13 11 9 7 5 4 5 3 3 7 5 8 11 11 11 14 13 12 10 9 11 14 14 17 21 22 21 21 23 24 26 26 25
18 17 16 15 15 15 15 15 13 13 12 10 10 5 4 4 4 4 4 3 3 9 7 10 12 10 12 11 12 9 11 16 11 20 23 23 24 24 25 27 29 32 31
18 17 16 15 16 16 16 16 14 13 13 9 7 6 4 2 2 1 4 6 6 8 10 11 8 11 12 12 11 8 11 11 9 17 23 24 24 25 27 28 30 39 38
17 15 15 15 15 15 15 15 14 12 11 9 7 5 3 2 1 2 5 5 7 8 8 9 10 10 11 12 13 13 15 13 10 12 18 19 21 23 24 30 38 36 33
17 12 12 17 15 16 15 15 13 11 10 7 6 5 4 4 3 3 5 7 6 7 10 10 9 10 10 10 12 16 18 17 14 14 15 14 20 24 29 29 35 38 33
14 14 14 13 14 15 15 14 11 10 8 7 6 5 2 4 4 6 5 6 7 7 9 10 11 8 15 17 15 18 20 19 17 17 17 16 20 21 23 27 32 35 34
16 15 15 14 13 15 14 12 10 10 9 8 7 5 5 3 3 5 5 5 6 9 10 10 10 10 15 13 10 16 21 20 17 19 20 20 22 24 24 24 32 27 32
17 16 16 14 14 14 12 10 10 11 9 8 7 7 4 3 4 4 5 6 7 6 8 11 14 13 13 13 14 13 17 18 18 20 21 22 22 24 24 17 19 21 18
18 17 15 14 13 11 11 11 11 10 9 9 8 7 4 4 4 4 7 7 9 10 14 16 14 15 14 14 14 17 18 18 19 20 21 22 19 20 19 22 21 17 13
17 15 14 13 11 10 7 8 9 11 11 9 10 9 6 8 5 9 9 12 12 17 19 18 17 15 16 19 18 17 18 18 19 20 20 22 22 25 20 18 16 13 11
17 16 12 9 10 7 9 7 6 8 8 9 9 10 9 10 8 11 12 14 18 20 21 20 17 21 26 25 20 16 17 19 20 22 22 22 21 22 18 15 13 13 10
15 14 11 12 10 11 9 8 6 5 9 11 9 11 9 5 9 13 13 17 18 20 20 17 19 21 19 16 11 19 19 21 22 22 22 23 19 17 15 14 14 14 12
14 15 11 11 16 14 10 9 8 10 10 12 11 7 4 8 10 14 13 15 22 18 15 15 16 15 12 14 15 18 18 17 16 17 18 17 17 16 16 15 15 15 16
14 13 11 14 11 14 10 10 11 9 8 9 9 8 11 11 11 16 16 20 20 16 14 13 13 12 10 10 12 13 13 16 19 16 18 17 16 15 15 15 16 16 17
14 14 10 13 13 12 11 12 8 11 12 9 12 13 13 12 14 14 16 14 13 9 9 11 11 10 9 12 13 13 15 13 15 19 16 15 14 15 15 16 16 18 18
12 12 7 12 10 12 12 12 13 13 12 11 9 11 15 15 16 16 16 14 11 10 9 11 11 13 11 10 9 11 14 14 13 14 14 14 15 15 16 16 17 18 19
12 13 6 12 10 11 12 11 12 11 13 15 13 8 9 11 11 12 8 7 8 8 8 9 10 11 11 11 11 11 13 14 15 15 15 15 15 16 17 17 18 19 21
16 14 11 9 11 9 10 11 10 9 9 14 14 10 14 13 9 7 7 9 8 8 7 5 8 8 11 12 11 13 13 14 16 16 17 18 18 19 19 20 20 22 23
7 14 13 10 10 10 8 9 9 9 9 10 13 11 11 7 7 8 7 5 4 4 5 6 6 7 7 7 8 9 12 14 15 17 18 19 19 20 22 23 24 25 27
11 7 12 11 15 10 11 5 10 6 5 10 14 12 11 6 1 4 5 5 4 3 3 3 4 5 5 7 10 12 15 15 14 15 17 18 20 22 23 24 26 27 29
23 21 16 14 17 14 15 14 13 13 10 14 16 16 15 12 10 11 9 10 8 5 6 10 11 13 15 17 17 17 18 17 20 21 19 16 19 22 24 25 26 28 29
13 15 17 19 20 17 17 16 15 15 14 14 16 15 16 15 15 14 16 16 16 12 11 11 15 15 15 15 17 21 25 26 25 25 27 30 27 24 24 26 28 30 33

GFSGL_850_spd_036.txt.gz
Wind_Speed
19 22 22 24 23 20 21 21 20 21 21 22 20 17 16 14 12 11 12 12 13 15 13 10 9 8 11 10 8 6 5 9 9 17 14 16 17 20 21 16 18 19 17
22 23 25 23 22 23 23 23 22 21 17 15 14 12 11 11 10 9 13 8 11 14 12 11 10 9 12 8 11 5 5 9 11 18 16 18 18 15 18 18 21 21 18
22 25 24 24 25 23 22 22 19 19 17 15 13 12 11 10 5 9 11 14 15 12 13 10 11 8 12 13 11 6 7 10 11 15 18 21 20 17 20 20 22 21 20
27 26 26 25 24 23 22 20 19 17 16 14 13 11 10 10 9 6 9 11 13 12 12 11 11 9 12 14 12 8 11 13 17 15 19 21 20 16 21 23 23 22 24
23 25 23 21 20 19 18 17 17 16 15 14 12 13 10 10 10 8 5 7 7 11 11 13 13 12 10 13 11 10 12 16 19 18 24 22 21 22 23 24 26 26 24
25 22 19 18 18 18 17 16 17 16 14 13 11 10 9 9 6 6 5 4 6 8 11 12 14 11 9 11 9 8 12 15 17 17 24 25 23 24 23 25 28 30 28
22 20 19 18 18 17 17 17 17 15 14 12 10 8 6 6 4 3 5 6 7 9 10 9 10 10 11 11 12 9 10 10 6 14 20 24 24 22 25 28 27 29 34
20 19 21 19 17 17 18 15 16 15 15 14 10 6 4 3 3 3 5 7 8 9 10 10 10 9 12 11 12 12 13 10 6 9 14 17 17 17 20 28 29 31 30
24 19 15 12 15 19 19 16 15 14 11 11 7 6 4 4 3 4 5 6 7 10 11 12 9 10 11 12 15 15 17 15 12 8 14 13 15 18 20 27 28 33 32
19 14 17 16 18 17 19 14 13 11 12 10 10 6 3 4 5 6 5 6 7 9 11 11 10 9 11 16 14 16 18 16 13 15 15 14 15 17 17 24 24 33 33
15 16 19 16 20 18 16 14 10 12 10 10 9 6 5 6 5 4 4 6 6 9 12 13 11 13 15 12 9 11 15 16 15 19 17 18 18 18 20 24 23 27 29
22 19 24 18 16 15 12 12 14 10 13 11 9 6 5 6 4 2 5 7 7 7 11 12 14 15 14 11 11 14 15 15 17 20 20 21 20 19 18 17 18 23 19
19 17 16 15 16 15 12 12 11 11 10 10 8 5 5 6 4 6 8 9 8 6 9 13 15 14 13 12 11 16 15 16 19 21 21 22 18 15 13 12 18 16 17
21 16 15 17 16 12 10 14 13 11 12 14 12 10 3 7 6 10 9 10 7 12 15 15 16 16 14 14 15 13 13 15 18 21 20 19 19 19 17 21 23 20 16
20 18 15 14 12 10 9 10 10 12 11 10 10 9 3 9 9 9 12 12 14 16 19 17 16 17 20 20 16 14 14 16 18 20 21 25 23 22 22 19 16 14 11
20 18 20 16 12 10 10 12 10 10 10 11 10 7 4 7 11 13 14 12 14 18 15 16 19 20 21 17 17 17 17 16 19 22 23 23 25 21 18 15 13 16 16
16 16 19 20 14 13 9 10 15 15 13 12 13 8 5 8 12 14 16 21 19 18 16 20 22 18 10 11 17 18 19 19 18 23 23 19 19 15 12 12 14 13 12
15 14 15 16 16 16 14 10 13 14 12 11 8 8 12 12 15 17 23 22 18 16 16 14 12 11 12 14 17 16 16 15 17 18 19 17 15 14 14 13 12 16 17
16 14 17 19 17 15 16 14 14 15 10 14 14 15 15 16 17 16 22 17 16 12 14 12 8 8 8 11 12 13 13 16 15 16 16 17 16 16 18 13 17 15 16
10 10 17 20 16 17 18 18 16 13 14 14 13 13 16 18 19 20 18 14 13 10 9 9 8 10 11 12 11 9 11 14 13 14 13 12 15 17 15 14 13 16 19
11 17 12 18 18 17 17 20 20 19 17 14 13 13 13 15 17 16 12 16 14 13 11 11 9 10 9 9 9 10 12 11 11 11 13 15 15 16 15 16 17 19 20
15 14 8 7 19 20 18 14 19 24 22 16 19 21 18 15 16 16 12 9 8 10 8 4 5 8 11 10 8 9 11 11 12 15 17 17 17 17 17 19 19 18 20
15 14 9 5 22 20 17 14 14 30 25 19 22 22 19 8 5 9 7 8 6 9 11 11 14 14 14 13 12 12 16 16 16 15 14 15 18 19 21 22 24 25 26
8 19 18 19 21 20 19 23 23 29 29 23 18 17 23 18 16 16 20 17 14 13 17 12 9 7 14 10 10 12 11 10 9 8 14 15 13 15 18 21 24 26 26
13 15 21 21 21 21 23 22 26 28 30 30 26 23 19 20 20 17 17 12 10 9 11 10 6 5 5 6 10 10 11 13 13 15 18 18 16 15 15 16 17 20 23
8 11 13 16 18 18 17 19 20 24 25 23 21 18 16 14 15 15 14 12 11 9 7 4 3 4 6 10 11 13 17 17 16 20 21 24 27 29 31 31 28 28 28

GFSGL_850_spd_042.txt.gz
Wind_Speed
36 36 27 23 24 25 26 26 22 21 24 23 18 17 20 19 19 17 15 15 15 13 12 12 12 13 13 14 11 9 9 10 12 10 11 10 16 17 16 15 15 15 16
27 26 22 22 21 22 20 16 18 21 21 19 20 21 19 17 16 15 14 13 15 14 11 12 12 12 13 13 11 8 5 6 9 12 14 16 16 14 16 16 16 15 16
27 23 21 19 19 20 20 18 17 19 20 21 19 19 19 18 16 12 11 13 14 14 12 12 11 13 13 13 13 10 5 6 6 17 19 16 18 18 18 17 17 17 15
26 21 22 23 24 23 20 20 21 20 22 20 19 18 15 11 10 8 9 13 12 13 14 13 14 14 13 14 13 11 9 9 12 16 18 19 18 18 17 19 19 17 19
24 24 23 26 25 25 24 24 23 23 22 17 13 14 16 15 11 11 10 9 12 15 16 16 16 15 13 12 13 12 13 14 16 19 21 19 18 17 18 20 21 19 20
30 28 30 28 27 27 25 25 25 24 20 15 18 15 13 12 14 12 12 10 10 11 14 17 16 15 13 13 13 12 12 15 19 19 21 20 20 19 20 22 23 23 22
33 30 28 28 26 26 26 26 25 21 17 19 16 15 13 14 13 13 11 9 10 10 12 12 14 15 13 13 15 12 11 12 12 13 18 24 23 21 21 24 24 26 26
35 33 31 29 27 24 22 20 24 23 22 19 15 12 11 10 10 9 8 8 7 10 11 12 15 13 14 15 17 15 15 14 14 13 13 16 20 19 18 23 25 25 23
35 31 28 26 25 23 22 24 22 21 20 17 14 11 9 9 8 8 9 9 10 10 12 12 14 15 16 15 16 17 17 17 15 15 14 16 17 18 22 21 26 25 27
32 29 26 25 25 25 26 24 22 19 18 15 13 10 8 8 9 9 9 10 10 13 14 15 15 13 15 15 15 16 16 14 16 16 19 20 19 20 19 22 22 27 28
31 27 27 25 25 26 26 24 21 17 16 14 13 10 10 9 10 10 9 9 10 15 14 15 15 13 14 14 12 13 11 16 14 18 20 20 19 18 21 21 18 20 26
28 26 28 27 27 24 25 20 19 18 18 16 12 12 10 10 11 11 10 10 11 11 16 15 13 15 15 15 14 14 13 13 16 20 21 20 20 19 17 19 19 17 19
26 24 27 28 25 23 21 21 20 19 17 14 10 11 10 10 10 10 11 10 10 12 14 12 16 15 15 14 14 13 13 13 16 21 20 20 20 18 18 18 20 19 16
23 28 28 26 25 22 20 16 19 19 16 13 11 9 10 9 9 11 11 11 12 11 13 16 17 14 12 15 15 14 13 12 17 17 19 19 18 19 16 15 16 16 14
27 27 27 28 25 24 22 18 15 14 12 12 10 7 4 9 12 10 10 11 10 13 17 18 18 15 15 17 16 13 11 14 16 16 19 18 18 17 17 16 15 17 17
28 29 29 28 24 22 22 22 18 14 13 9 5 2 7 11 14 12 11 11 16 17 17 17 16 14 15 16 15 13 13 15 16 17 19 19 19 18 16 20 18 16 17
29 26 25 22 19 20 20 21 21 18 13 13 10 7 8 14 16 14 14 15 16 14 14 14 15 14 16 15 13 14 14 15 15 17 19 19 19 15 15 18 16 17 14
23 22 20 19 20 20 17 18 21 23 23 21 14 11 12 18 19 21 20 19 20 15 14 14 14 12 12 14 12 12 12 13 14 15 16 18 16 15 16 15 13 12 11
21 19 15 17 16 18 19 20 22 24 24 21 17 16 17 21 24 22 21 20 21 18 15 13 11 9 10 11 11 11 11 11 12 15 16 18 16 14 12 11 10 10 10
17 18 17 15 17 19 21 22 23 23 22 19 19 21 23 26 26 23 18 14 10 8 7 6 6 7 9 10 11 10 10 11 12 14 15 17 14 12 11 10 9 10 12
17 20 15 16 19 20 21 20 20 21 21 22 22 23 24 24 23 19 13 9 9 8 6 4 5 8 10 7 7 8 9 10 10 11 12 10 9 10 6 6 8 12 16
17 20 17 16 19 19 17 15 19 20 22 21 20 19 18 20 18 14 9 7 6 7 6 5 5 6 6 7 8 7 7 7 8 9 9 10 13 15 18 19 19 21 21
17 21 18 18 16 16 21 20 21 22 23 26 23 21 20 21 18 14 10 8 8 8 7 8 8 9 7 9 10 9 9 10 11 12 11 12 16 17 17 17 17 20 20
25 21 23 20 23 20 23 22 23 28 30 26 24 25 23 19 17 15 14 10 7 5 5 6 7 6 5 4 3 1 6 8 11 10 11 11 12 11 10 10 10 9 9
27 26 24 24 21 25 27 31 36 38 35 29 24 21 21 20 18 17 15 11 8 10 12 11 9 9 8 8 6 5 5 4 4 5 5 5 4 6 9 9 10 14 15
32 29 17 11 21 33 33 34 35 37 33 27 22 18 17 19 19 18 17 17 18 17 15 14 15 14 13 11 9 7 5 5 4 4 5 6 9 9 10 9 10 12 11

GFSGL_850_spd_045.txt.gz
Wind_Speed
28 30 36 37 38 32 27 27 23 22 19 17 20 21 18 14 14 16 16 16 16 13 11 11 12 12 13 14 13 11 10 10 12 10 9 7 6 9 13 16 16 16 14
21 26 29 31 27 25 23 20 21 20 20 19 20 20 15 15 18 17 18 17 15 13 12 12 10 11 11 11 10 9 7 7 10 12 10 11 13 12 14 14 14 13 12
21 22 24 24 24 20 20 20 18 19 18 21 21 17 17 19 19 17 15 13 12 12 11 11 11 12 13 12 11 11 7 5 7 10 14 14 16 13 13 12 13 13 13
24 27 27 26 21 19 19 19 21 21 20 19 19 21 21 19 17 15 12 12 11 11 13 11 12 13 14 12 12 12 9 6 6 12 16 15 15 15 15 15 16 15 15
31 31 29 23 21 21 23 21 21 20 21 22 21 20 19 16 14 11 9 8 9 10 13 14 14 13 13 12 13 13 10 9 11 16 16 15 17 16 17 17 17 16 16
27 27 25 24 25 26 24 25 25 26 24 23 20 18 19 17 13 11 9 7 8 11 15 17 16 14 13 13 13 11 8 9 15 17 19 20 19 18 18 18 20 20 19
23 25 25 28 29 28 29 29 30 29 23 16 19 19 17 14 11 10 10 11 12 12 13 13 13 14 14 15 16 12 9 8 10 12 16 18 19 19 19 19 20 22 22
24 28 29 30 33 34 32 30 28 23 17 21 19 16 15 12 11 12 12 11 10 10 10 10 13 14 17 15 16 14 13 12 11 12 10 8 13 15 16 19 21 20 21
31 34 33 29 30 30 30 29 25 20 22 19 17 13 10 11 11 10 9 9 9 8 9 10 12 15 13 14 15 14 15 15 14 14 11 8 12 13 15 19 22 22 24
41 33 31 31 31 27 25 24 25 24 20 19 14 11 9 8 10 9 9 9 10 9 11 11 11 12 11 12 11 13 14 15 16 16 15 15 14 13 14 15 19 23 25
38 36 32 29 26 24 27 25 23 23 19 15 11 10 9 9 9 9 9 8 7 9 12 13 14 12 12 12 9 8 9 12 13 14 17 18 16 16 16 18 19 20 23
35 33 29 26 26 28 27 26 22 18 15 13 12 11 9 9 10 9 8 8 7 10 15 16 13 12 11 11 9 7 7 10 12 15 17 17 16 16 17 16 16 15 17
34 31 31 27 29 27 27 24 20 16 15 14 12 10 11 10 10 8 8 10 11 11 12 11 10 14 13 13 11 10 8 8 13 16 17 16 15 15 16 17 16 16 14
33 34 29 28 29 25 23 19 18 17 16 14 10 11 10 9 8 9 10 11 12 14 14 13 16 14 13 13 12 11 10 8 10 15 15 15 16 17 16 16 16 15 13
32 31 30 29 25 26 22 19 17 17 12 10 8 6 6 10 8 11 10 10 11 11 14 18 18 15 14 14 13 12 10 9 10 11 13 14 15 15 15 13 12 14 14
32 31 31 29 28 24 22 20 17 14 10 7 4 2 5 11 12 11 10 10 11 14 16 19 16 11 13 15 14 12 10 10 12 10 14 14 14 13 14 16 13 15 16
29 29 28 28 25 24 22 20 20 17 13 10 7 5 7 14 14 13 12 14 15 16 16 13 13 12 13 13 10 8 10 12 13 13 15 14 14 13 12 14 13 13 13
24 26 28 24 21 20 20 20 18 18 18 17 11 11 13 15 15 17 17 16 14 13 11 11 10 10 13 11 10 10 9 11 12 12 14 15 14 11 9 12 12 12 12
22 25 23 18 16 18 19 20 20 18 22 20 17 17 19 19 20 19 16 15 15 15 14 13 10 9 11 11 9 9 8 8 11 13 14 15 14 12 11 10 9 8 8
20 18 16 17 18 17 16 19 23 24 23 19 19 22 26 24 23 18 15 12 12 12 10 9 9 10 10 9 9 9 8 9 11 13 14 15 13 11 10 9 8 7 7
19 16 17 16 19 19 20 22 25 25 22 21 21 23 25 23 21 16 13 11 9 9 8 6 11 11 11 9 8 9 10 10 10 12 14 12 12 12 9 8 10 13 15
19 16 16 17 20 19 19 19 22 22 20 21 21 23 23 21 17 14 12 10 8 8 7 8 9 11 11 10 10 10 9 8 8 8 9 9 10 12 12 13 13 16 19
21 17 19 21 21 19 17 18 18 20 22 23 23 25 23 20 15 12 10 7 7 7 7 8 9 8 7 8 8 9 9 8 7 7 8 10 11 14 15 16 16 17 19
25 19 20 22 22 20 21 21 22 26 28 27 24 24 24 20 15 11 9 8 7 5 7 9 10 7 5 6 7 8 9 10 10 10 12 13 15 12 10 10 9 7 7
26 26 26 25 27 27 28 27 28 30 28 27 25 25 23 20 16 13 11 10 10 10 11 11 12 11 10 9 8 8 10 6 4 4 4 2 2 3 4 5 5 6 8
21 24 26 30 28 27 26 30 32 29 28 27 25 22 20 18 16 13 11 11 13 15 15 15 15 14 13 11 10 8 6 5 4 1 2 3 2 3 3 3 4 5 6

GFSGL_850_spd_048.txt.gz
Wind_Speed
29 26 27 33 31 32 35 38 35 31 28 24 22 22 20 21 19 16 15 15 14 16 14 11 11 12 12 11 10 11 11 10 10 9 8 7 5 7 9 16 19 18 13
28 27 27 31 35 32 32 37 34 31 24 22 20 21 21 19 17 17 16 17 17 15 13 13 12 12 12 10 9 9 8 8 8 9 9 8 5 9 11 13 17 16 14
23 27 24 28 27 29 32 32 29 24 23 21 20 22 19 18 16 15 17 16 15 12 11 12 12 12 11 10 9 8 9 7 7 8 12 11 13 12 14 15 16 15 15
23 26 22 23 22 23 24 24 22 22 22 22 22 20 22 19 18 18 17 14 12 11 12 12 11 10 10 9 9 10 10 6 6 8 10 14 18 17 14 16 16 14 15
28 24 23 23 23 24 23 21 21 21 20 23 24 22 21 20 19 19 15 12 11 12 13 14 12 10 8 8 9 11 11 7 7 10 13 15 18 17 18 17 17 17 17
27 25 24 25 27 24 22 23 22 23 23 22 23 24 20 20 18 12 10 10 11 11 11 13 14 12 11 10 11 10 8 6 9 12 14 15 17 18 18 17 17 18 18
23 24 25 29 27 25 27 23 24 25 26 26 24 24 23 17 16 12 11 10 8 9 11 13 14 15 13 13 13 14 10 7 4 7 11 14 15 16 17 18 19 20 19
26 29 29 27 26 28 28 30 29 29 28 25 23 21 19 16 14 12 11 10 10 10 10 10 11 13 15 16 16 16 13 11 9 9 9 4 10 13 14 16 19 18 18
27 27 27 27 29 32 36 31 31 30 27 24 22 19 17 15 12 11 11 10 8 8 7 8 9 12 15 15 15 16 14 13 12 11 10 8 6 8 13 17 20 20 22
26 24 26 28 33 35 35 37 31 24 26 22 19 18 13 10 11 11 9 8 8 7 8 10 11 10 12 12 15 15 13 14 14 14 13 11 10 10 9 14 19 21 21
28 28 29 30 36 35 34 31 24 26 23 21 17 13 11 10 10 9 9 9 8 8 10 11 12 13 11 12 12 9 9 11 13 12 13 13 13 12 12 14 15 12 17
30 34 31 35 34 32 28 29 27 24 23 19 14 13 11 10 10 9 9 8 8 8 13 12 13 13 12 13 12 10 9 9 10 11 15 17 16 13 13 14 14 13 12
27 29 38 34 29 30 31 28 26 23 18 15 13 12 12 12 11 11 10 9 9 10 15 13 10 11 12 13 10 8 6 9 10 13 16 16 13 13 14 15 15 15 13
42 42 37 33 33 32 30 27 22 18 16 14 13 12 12 12 11 10 9 11 11 14 14 11 11 14 13 11 10 10 7 4 9 12 13 12 13 14 15 16 15 14 13
44 37 35 35 33 33 29 23 18 15 12 10 10 10 12 13 12 10 9 10 11 14 14 15 16 15 14 13 12 10 9 7 9 12 12 12 14 14 13 15 15 14 13
41 37 35 33 33 29 24 22 18 17 14 12 10 6 9 10 12 12 11 10 10 12 14 17 16 13 13 13 12 11 10 9 11 11 12 12 14 13 13 11 12 12 15
35 34 34 31 30 26 24 23 23 19 15 13 10 9 11 13 12 11 10 10 11 12 13 16 14 13 13 13 11 8 8 10 11 9 12 12 11 10 11 12 13 10 14
30 31 29 30 27 26 23 23 22 23 20 17 15 16 14 15 13 13 13 13 12 11 15 13 12 12 13 11 9 7 9 11 11 11 11 11 11 8 7 9 10 9 9
30 29 27 26 24 23 22 23 22 20 22 20 20 18 18 18 18 15 13 11 13 12 13 11 9 10 12 9 10 8 9 11 11 11 11 12 10 8 5 6 7 7 8
25 26 24 23 23 22 22 22 20 26 23 21 23 25 25 25 20 17 17 16 15 15 14 13 12 11 10 8 7 8 8 9 10 11 12 12 10 9 8 9 9 7 6
23 22 19 20 22 22 22 22 25 26 23 24 27 28 27 22 19 16 13 12 12 11 11 10 9 10 11 10 10 9 8 8 9 10 11 11 11 10 8 6 6 7 9
23 23 22 22 23 23 23 27 29 24 25 28 31 28 22 17 17 17 14 13 13 12 11 12 12 11 11 10 10 10 10 11 10 11 9 8 7 6 6 8 8 10 13
22 22 24 24 24 24 25 27 26 25 28 31 30 28 22 17 14 13 10 11 12 11 11 12 12 11 9 8 8 8 8 9 8 7 6 7 8 10 12 15 16 17 18
23 25 27 26 24 25 25 25 27 28 30 31 29 26 22 17 14 11 9 10 9 10 9 10 9 8 7 8 7 6 7 7 7 8 9 11 12 11 8 8 6 4 7
27 28 27 27 25 27 28 31 32 30 30 29 28 25 21 16 12 9 10 11 12 13 14 13 12 12 11 10 8 6 6 6 4 3 3 3 2 2 3 3 2 1 1
27 26 27 26 27 27 27 29 31 30 29 27 26 24 20 16 14 14 14 15 16 17 17 17 17 15 14 12 11 9 8 7 7 6 4 3 3 4 4 1 0 1 3